EI8EPB-1 Weather Reports


time (UTC)temp
C
wind
direction
speed
KPH
gust
KPH
rain 1hr
cm
rain 24hr
cm
rain mn
cm
humidity
%
barometer
mb
20260508111503 16 247 0.0 3.2 0.00 0.00 0.00 66 1013.9
20260508111003 15 262 0.0 1.6 0.00 0.00 0.00 66 1013.9
20260508110503 15 294 0.0 3.2 0.00 0.00 0.00 67 1014.0
20260508110004 15 279 0.0 3.2 0.00 0.00 0.00 67 1013.9
20260508105503 15 287 1.6 4.8 0.00 0.00 0.00 63 1013.9
20260508105003 16 292 0.0 4.8 0.00 0.00 0.00 64 1013.9
20260508104503 16 272 0.0 3.2 0.00 0.00 0.00 67 1013.9
20260508104003 16 290 0.0 3.2 0.00 0.00 0.00 67 1014.0
20260508103503 16 265 0.0 3.2 0.00 0.00 0.00 67 1013.9
20260508103003 16 227 0.0 1.6 0.00 0.00 0.00 70 1013.9
20260508102503 15 222 0.0 3.2 0.00 0.00 0.00 73 1014.0
20260508102003 14 227 0.0 3.2 0.00 0.00 0.00 74 1014.0
20260508101503 14 7 0.0 1.6 0.00 0.00 0.00 74 1013.9
20260508101003 14 351 0.0 1.6 0.00 0.00 0.00 74 1013.9
20260508100503 14 251 0.0 1.6 0.00 0.00 0.00 76 1013.8
20260508100003 13 248 0.0 1.6 0.00 0.00 0.00 78 1013.9
20260508095503 13 279 0.0 1.6 0.00 0.00 0.00 78 1014.0
20260508095003 13 275 0.0 1.6 0.00 0.00 0.00 79 1014.0
20260508094503 13 279 0.0 3.2 0.00 0.00 0.00 78 1013.9
20260508094003 13 296 0.0 3.2 0.00 0.00 0.00 78 1014.0
20260508093503 13 303 0.0 1.6 0.00 0.00 0.00 77 1013.9
20260508093003 13 270 0.0 1.6 0.00 0.00 0.00 78 1013.9
20260508092503 13 187 0.0 4.8 0.00 0.00 0.00 78 1013.9
20260508092003 13 171 0.0 4.8 0.00 0.00 0.00 80 1013.9
20260508091503 13 196 0.0 3.2 0.00 0.00 0.00 82 1013.9
20260508091003 12 198 0.0 1.6 0.00 0.00 0.00 83 1013.9
20260508090503 12 193 0.0 1.6 0.00 0.00 0.00 85 1014.0
20260508090003 12 0 0.0 0.0 0.00 0.00 0.00 87 1014.0
20260508085503 11 0 0.0 0.0 0.00 0.00 0.00 89 1013.8
20260508085003 11 234 0.0 1.6 0.00 0.00 0.00 90 1013.9
20260508084503 10 242 0.0 1.6 0.00 0.00 0.00 92 1013.9
20260508084003 10 290 0.0 1.6 0.00 0.00 0.00 93 1013.9
20260508083503 10 285 0.0 1.6 0.00 0.00 0.00 93 1013.8
20260508083003 9 279 0.0 1.6 0.00 0.00 0.00 94 1013.8
20260508082503 9 272 0.0 1.6 0.00 0.00 0.00 95 1013.9
20260508082003 8 0 0.0 0.0 0.00 0.00 0.00 95 1013.9
20260508081504 8 272 0.0 1.6 0.00 0.00 0.00 96 1013.8
20260508081003 8 273 0.0 1.6 0.00 0.00 0.00 96 1013.8
20260508080503 8 272 0.0 1.6 0.00 0.00 0.00 96 1013.8
20260508080003 8 269 0.0 1.6 0.00 0.00 0.00 97 1013.8
20260508075503 7 266 0.0 1.6 0.00 0.00 0.00 97 1013.7
20260508075003 7 266 0.0 1.6 0.00 0.00 0.00 97 1013.7
20260508074503 7 265 0.0 1.6 0.00 0.00 0.00 97 1013.7
20260508074003 7 264 0.0 1.6 0.00 0.00 0.00 97 1013.7
20260508073503 7 0 0.0 0.0 0.00 0.00 0.00 98 1013.5
20260508073003 7 0 0.0 0.0 0.00 0.00 0.00 98 1013.5
20260508072503 6 222 0.0 1.6 0.00 0.00 0.00 98 1013.5
20260508072003 6 222 0.0 1.6 0.00 0.00 0.00 98 1013.4
20260508071503 6 0 0.0 0.0 0.00 0.00 0.00 98 1013.3
20260508071003 6 0 0.0 0.0 0.00 0.00 0.00 98 1013.4
20260508070503 6 0 0.0 0.0 0.00 0.00 0.00 98 1013.3
20260508070003 5 0 0.0 0.0 0.00 0.00 0.00 97 1013.3
20260508065503 5 0 0.0 0.0 0.00 0.00 0.00 97 1013.4
20260508065003 5 0 0.0 0.0 0.00 0.00 0.00 97 1013.4
20260508064503 5 0 0.0 0.0 0.00 0.00 0.00 97 1013.3
20260508064003 5 0 0.0 0.0 0.00 0.00 0.00 97 1013.2
20260508063503 4 0 0.0 0.0 0.00 0.00 0.00 97 1013.2
20260508063003 4 0 0.0 0.0 0.00 0.00 0.00 97 1013.1
20260508062503 4 0 0.0 0.0 0.00 0.00 0.00 97 1013.2
20260508062003 4 0 0.0 0.0 0.00 0.00 0.00 96 1013.1
20260508061503 4 0 0.0 0.0 0.00 0.00 0.00 97 1013.1
20260508061003 4 0 0.0 0.0 0.00 0.00 0.00 96 1013.0
20260508060503 4 0 0.0 0.0 0.00 0.00 0.00 96 1013.0
20260508060003 3 0 0.0 0.0 0.00 0.00 0.00 97 1013.0
20260508055504 3 0 0.0 0.0 0.00 0.00 0.00 97 1012.9
20260508055003 3 0 0.0 0.0 0.00 0.00 0.00 96 1012.9
20260508054503 3 0 0.0 0.0 0.00 0.00 0.00 96 1012.9
20260508054003 3 0 0.0 0.0 0.00 0.00 0.00 96 1012.8
20260508053503 3 0 0.0 0.0 0.00 0.00 0.00 96 1012.7
20260508053003 3 0 0.0 0.0 0.00 0.00 0.00 96 1012.7
20260508052503 3 0 0.0 0.0 0.00 0.00 0.00 96 1012.7
20260508052003 3 0 0.0 0.0 0.00 0.00 0.00 96 1012.6
20260508051503 3 0 0.0 0.0 0.00 0.00 0.00 96 1012.5
20260508051003 3 0 0.0 0.0 0.00 0.00 0.00 95 1012.6
20260508050503 3 0 0.0 0.0 0.00 0.00 0.00 95 1012.6
20260508050003 3 0 0.0 0.0 0.00 0.00 0.00 95 1012.6
20260508045503 3 0 0.0 0.0 0.00 0.00 0.00 95 1012.6
20260508045003 3 0 0.0 0.0 0.00 0.00 0.00 95 1012.6
20260508044503 3 0 0.0 0.0 0.00 0.00 0.00 95 1012.7
20260508044003 3 0 0.0 0.0 0.00 0.00 0.00 95 1012.7
20260508043503 3 0 0.0 0.0 0.00 0.00 0.00 95 1012.7
20260508043003 3 0 0.0 0.0 0.00 0.00 0.00 95 1012.6
20260508042503 3 0 0.0 0.0 0.00 0.00 0.00 95 1012.6
20260508042003 3 0 0.0 0.0 0.00 0.00 0.00 95 1012.5
20260508041504 3 0 0.0 0.0 0.00 0.00 0.00 95 1012.6
20260508041003 3 0 0.0 0.0 0.00 0.00 0.00 95 1012.5
20260508040503 3 0 0.0 0.0 0.00 0.00 0.00 95 1012.5
20260508040004 3 0 0.0 0.0 0.00 0.00 0.00 95 1012.5
20260508035503 3 0 0.0 0.0 0.00 0.00 0.00 95 1012.5
20260508035003 3 0 0.0 0.0 0.00 0.00 0.00 95 1012.5
20260508034503 3 0 0.0 0.0 0.00 0.00 0.00 95 1012.5
20260508034003 4 0 0.0 0.0 0.00 0.00 0.00 95 1012.5
20260508033503 4 0 0.0 0.0 0.00 0.00 0.00 95 1012.4
20260508033003 4 0 0.0 0.0 0.00 0.00 0.00 95 1012.4
20260508032503 4 0 0.0 0.0 0.00 0.00 0.00 95 1012.4
20260508032003 4 0 0.0 0.0 0.00 0.00 0.00 94 1012.3
20260508031503 4 0 0.0 0.0 0.00 0.00 0.00 94 1012.3
20260508031003 4 0 0.0 0.0 0.00 0.00 0.00 94 1012.3
20260508030503 4 0 0.0 0.0 0.00 0.00 0.00 94 1012.4
20260508030003 4 0 0.0 0.0 0.00 0.00 0.00 94 1012.4
20260508025504 5 0 0.0 0.0 0.00 0.00 0.00 94 1012.3
20260508025003 5 0 0.0 0.0 0.00 0.00 0.00 94 1012.3
20260508024503 5 0 0.0 0.0 0.00 0.00 0.00 94 1012.2
20260508024003 5 0 0.0 0.0 0.00 0.00 0.00 94 1012.2
20260508023503 5 0 0.0 0.0 0.00 0.00 0.00 94 1012.2
20260508023003 5 0 0.0 0.0 0.00 0.00 0.00 94 1012.2
20260508022503 5 0 0.0 0.0 0.00 0.00 0.00 94 1012.2
20260508022003 5 0 0.0 0.0 0.00 0.00 0.00 94 1012.2
20260508021503 5 0 0.0 0.0 0.00 0.00 0.00 94 1012.2
20260508021003 5 0 0.0 0.0 0.00 0.00 0.00 94 1012.1
20260508020504 5 0 0.0 0.0 0.00 0.00 0.00 94 1012.1
20260508020005 5 0 0.0 0.0 0.00 0.00 0.00 93 1012.2
20260508015503 5 0 0.0 0.0 0.00 0.00 0.00 93 1012.2
20260508015003 6 0 0.0 0.0 0.00 0.00 0.00 93 1012.2
20260508014504 6 0 0.0 0.0 0.00 0.00 0.00 93 1012.2
20260508014003 6 0 0.0 0.0 0.00 0.00 0.00 93 1012.3
20260508013503 6 0 0.0 0.0 0.00 0.00 0.00 93 1012.2
20260508013004 6 0 0.0 0.0 0.00 0.00 0.00 92 1012.2
20260508012503 6 0 0.0 0.0 0.00 0.00 0.00 92 1012.1
20260508012003 6 0 0.0 0.0 0.00 0.00 0.00 92 1012.1
20260508011503 6 0 0.0 0.0 0.00 0.00 0.00 92 1012.1
20260508011003 6 0 0.0 0.0 0.00 0.00 0.00 92 1012.2
20260508010503 6 0 0.0 0.0 0.00 0.00 0.00 91 1012.2
20260508010004 6 0 0.0 0.0 0.00 0.00 0.00 91 1012.2
20260508005503 7 0 0.0 0.0 0.00 0.00 0.00 90 1012.3
20260508005003 7 0 0.0 0.0 0.00 0.00 0.00 90 1012.3
20260508004503 7 0 0.0 0.0 0.00 0.00 0.00 90 1012.3
20260508004003 7 0 0.0 0.0 0.00 0.00 0.00 89 1012.3
20260508003503 7 0 0.0 0.0 0.00 0.00 0.00 90 1012.3
20260508003003 7 0 0.0 0.0 0.00 0.00 0.00 90 1012.3
20260508002503 8 0 0.0 0.0 0.00 0.00 0.00 90 1012.3
20260508002003 8 0 0.0 0.0 0.00 0.00 0.00 89 1012.2
20260508001503 8 0 0.0 0.0 0.00 0.00 0.00 89 1012.2
20260508001003 8 0 0.0 0.0 0.00 0.00 0.00 89 1012.3
20260508000503 8 0 0.0 0.0 0.00 0.00 0.00 89 1012.3
20260508000003 8 0 0.0 0.0 0.00 0.00 0.00 89 1012.3
20260507235503 8 0 0.0 0.0 0.00 0.00 0.00 88 1012.3
20260507235003 8 143 0.0 1.6 0.00 0.00 0.00 88 1012.3
20260507234503 8 150 0.0 1.6 0.00 0.00 0.00 88 1012.4
20260507234003 8 155 0.0 1.6 0.00 0.00 0.00 88 1012.4
20260507233503 8 0 0.0 0.0 0.00 0.00 0.00 88 1012.4
20260507233003 9 0 0.0 0.0 0.00 0.00 0.00 88 1012.2
20260507232503 9 0 0.0 0.0 0.00 0.00 0.00 88 1012.3
20260507232003 9 0 0.0 0.0 0.00 0.00 0.00 88 1012.2
20260507231503 9 151 0.0 1.6 0.00 0.00 0.00 88 1012.3
20260507231003 9 151 0.0 1.6 0.00 0.00 0.00 88 1012.3
20260507230503 9 134 0.0 1.6 0.00 0.00 0.00 88 1012.3
20260507230004 9 145 0.0 1.6 0.00 0.00 0.00 88 1012.3
20260507225503 9 165 0.0 1.6 0.00 0.00 0.00 87 1012.2
20260507225003 9 174 0.0 1.6 0.00 0.00 0.00 87 1012.2
20260507224504 9 174 0.0 1.6 0.00 0.00 0.00 87 1012.2
20260507224004 9 169 0.0 1.6 0.00 0.00 0.00 87 1012.1
20260507223503 9 160 0.0 1.6 0.00 0.00 0.00 87 1012.1
20260507223003 9 0 0.0 0.0 0.00 0.00 0.00 87 1012.2
20260507222503 9 170 0.0 1.6 0.00 0.00 0.00 87 1012.1
20260507222003 9 170 0.0 1.6 0.00 0.00 0.00 86 1012.2
20260507221503 10 0 0.0 0.0 0.00 0.00 0.00 86 1012.1
20260507221003 10 0 0.0 0.0 0.00 0.00 0.00 86 1012.1
20260507220503 10 0 0.0 0.0 0.00 0.00 0.00 86 1012.1
20260507220004 10 0 0.0 0.0 0.00 0.00 0.00 86 1012.1
20260507215503 10 0 0.0 0.0 0.00 0.00 0.00 86 1012.1
20260507215003 10 0 0.0 0.0 0.00 0.00 0.00 85 1012.2
20260507214503 10 0 0.0 0.0 0.00 0.00 0.00 85 1012.1
20260507214003 10 0 0.0 0.0 0.00 0.00 0.00 85 1012.1
20260507213503 10 0 0.0 0.0 0.00 0.00 0.00 85 1012.1
20260507213003 10 0 0.0 0.0 0.00 0.00 0.00 85 1012.1
20260507212503 10 158 0.0 1.6 0.00 0.00 0.00 84 1012.0
20260507212003 10 158 0.0 1.6 0.00 0.00 0.00 84 1012.0
20260507211503 10 0 0.0 0.0 0.00 0.00 0.00 84 1011.9
20260507211003 10 146 0.0 1.6 0.00 0.00 0.00 84 1011.9
20260507210503 10 141 0.0 1.6 0.00 0.00 0.00 84 1011.9
20260507210003 10 133 0.0 1.6 0.00 0.00 0.00 84 1011.9
20260507205503 10 132 0.0 1.6 0.00 0.00 0.00 84 1011.9
20260507205003 10 0 0.0 0.0 0.00 0.00 0.00 83 1011.8
20260507204503 10 0 0.0 0.0 0.00 0.00 0.00 83 1011.7
20260507204003 10 0 0.0 0.0 0.00 0.00 0.00 83 1011.6
20260507203503 10 141 0.0 1.6 0.00 0.00 0.00 82 1011.5
20260507203003 10 152 0.0 1.6 0.00 0.00 0.00 82 1011.4
20260507202503 10 144 0.0 1.6 0.00 0.00 0.00 82 1011.4
20260507202004 11 143 0.0 1.6 0.00 0.00 0.00 81 1011.4
20260507201503 11 147 0.0 1.6 0.00 0.00 0.00 81 1011.3
20260507201004 11 141 0.0 3.2 0.00 0.00 0.00 81 1011.3
20260507200503 11 151 0.0 3.2 0.00 0.00 0.00 80 1011.3
20260507200003 11 152 0.0 3.2 0.00 0.00 0.00 80 1011.3
20260507195503 11 147 0.0 3.2 0.00 0.00 0.00 80 1011.2
20260507195003 11 144 0.0 3.2 0.00 0.00 0.00 80 1011.1
20260507194503 11 145 0.0 3.2 0.00 0.00 0.00 80 1011.1
20260507194003 11 171 0.0 3.2 0.00 0.00 0.00 79 1011.1
20260507193503 11 205 0.0 6.4 0.00 0.00 0.00 79 1011.1
20260507193003 11 199 0.0 6.4 0.00 0.00 0.00 78 1011.1
20260507192503 11 173 1.6 4.8 0.00 0.00 0.00 78 1011.1
20260507192003 12 168 1.6 6.4 0.00 0.00 0.00 77 1011.0
20260507191503 12 166 1.6 6.4 0.00 0.00 0.00 77 1011.0
20260507191003 12 159 1.6 9.7 0.00 0.00 0.00 76 1011.0
20260507190504 12 153 1.6 9.7 0.00 0.00 0.00 76 1011.0
20260507190004 12 157 1.6 8.0 0.00 0.00 0.00 76 1011.0
20260507185503 12 173 0.0 6.4 0.00 0.00 0.00 76 1011.0
20260507185003 12 163 1.6 6.4 0.00 0.00 0.00 76 1011.0
20260507184503 12 159 1.6 6.4 0.00 0.00 0.00 76 1010.9
20260507184003 12 162 1.6 6.4 0.00 0.00 0.00 76 1010.8
20260507183503 12 161 1.6 6.4 0.00 0.00 0.00 76 1010.8
20260507183003 12 169 1.6 6.4 0.00 0.00 0.00 75 1010.8
20260507182503 12 165 1.6 8.0 0.00 0.00 0.00 75 1010.8
20260507182003 12 163 1.6 8.0 0.00 0.00 0.00 75 1010.8
20260507181503 13 168 1.6 6.4 0.00 0.00 0.00 76 1010.7
20260507181003 13 166 1.6 8.0 0.00 0.00 0.00 75 1010.7
20260507180503 13 169 1.6 8.0 0.00 0.00 0.00 75 1010.7
20260507180003 13 173 3.2 8.0 0.00 0.00 0.00 75 1010.6
20260507175503 13 180 3.2 8.0 0.00 0.00 0.00 74 1010.6
20260507175003 13 187 3.2 9.7 0.00 0.00 0.00 74 1010.6
20260507174503 13 172 3.2 9.7 0.00 0.00 0.00 74 1010.6
20260507174003 13 164 3.2 9.7 0.00 0.00 0.00 73 1010.6
20260507173503 13 165 3.2 12.9 0.00 0.00 0.00 73 1010.6
20260507173003 13 167 4.8 12.9 0.00 0.00 0.00 73 1010.6
20260507172503 13 164 4.8 16.1 0.00 0.00 0.00 73 1010.6
20260507172003 13 167 4.8 16.1 0.00 0.00 0.00 72 1010.6
20260507171503 13 173 3.2 11.3 0.00 0.00 0.00 72 1010.6
20260507171003 13 176 3.2 9.7 0.00 0.00 0.00 72 1010.5
20260507170503 13 172 3.2 12.9 0.00 0.00 0.00 71 1010.5
20260507170003 13 169 3.2 12.9 0.00 0.00 0.00 71 1010.5
20260507165503 13 169 3.2 9.7 0.00 0.00 0.00 71 1010.5
20260507165003 13 163 4.8 12.9 0.00 0.00 0.00 71 1010.6
20260507164503 13 163 3.2 12.9 0.00 0.00 0.00 71 1010.5
20260507164003 13 163 3.2 9.7 0.00 0.00 0.00 71 1010.5
20260507163503 13 163 4.8 11.3 0.00 0.00 0.00 70 1010.5
20260507163003 13 168 3.2 11.3 0.00 0.00 0.00 70 1010.6
20260507162503 13 175 3.2 12.9 0.00 0.00 0.00 71 1010.5
20260507162003 13 187 3.2 12.9 0.00 0.00 0.00 70 1010.5
20260507161503 13 196 3.2 6.4 0.00 0.00 0.00 70 1010.5
20260507161003 13 196 3.2 8.0 0.00 0.00 0.00 71 1010.5
20260507160503 13 196 1.6 8.0 0.00 0.00 0.00 70 1010.4
20260507160004 13 190 1.6 8.0 0.00 0.00 0.00 71 1010.4
20260507155503 13 188 1.6 8.0 0.00 0.00 0.00 70 1010.4
20260507155003 14 185 1.6 8.0 0.00 0.00 0.00 71 1010.4
20260507154504 14 192 3.2 9.7 0.00 0.00 0.00 69 1010.3
20260507154003 14 195 3.2 9.7 0.00 0.00 0.00 70 1010.3
20260507153504 14 190 3.2 9.7 0.00 0.00 0.00 68 1010.3
20260507153003 14 184 3.2 8.0 0.00 0.00 0.00 69 1010.3
20260507152503 14 186 3.2 8.0 0.00 0.00 0.00 67 1010.3
20260507152003 14 192 3.2 9.7 0.00 0.00 0.00 66 1010.2
20260507151503 14 195 3.2 9.7 0.00 0.00 0.00 66 1010.2
20260507151003 14 192 1.6 6.4 0.00 0.00 0.00 66 1010.3
20260507150503 14 183 3.2 8.0 0.00 0.00 0.00 65 1010.3
20260507150003 15 184 3.2 8.0 0.00 0.00 0.00 64 1010.2
20260507145503 15 189 1.6 6.4 0.00 0.00 0.00 64 1010.3
20260507145003 15 188 1.6 8.0 0.00 0.00 0.00 64 1010.2
20260507144503 15 192 1.6 8.0 0.00 0.00 0.00 62 1010.2
20260507144003 15 192 1.6 6.4 0.00 0.00 0.00 63 1010.2
20260507143503 15 193 1.6 8.0 0.00 0.00 0.00 62 1010.2
20260507143003 15 192 1.6 8.0 0.00 0.00 0.00 62 1010.2
20260507142503 16 189 1.6 8.0 0.00 0.00 0.00 59 1010.3
20260507142003 16 175 1.6 4.8 0.00 0.00 0.00 59 1010.4
20260507141503 16 162 1.6 8.0 0.00 0.00 0.00 61 1010.4
20260507141003 16 158 3.2 9.7 0.00 0.00 0.00 59 1010.3
20260507140503 15 161 4.8 11.3 0.00 0.00 0.00 62 1010.4
20260507140003 15 161 3.2 11.3 0.00 0.00 0.00 62 1010.4
20260507135503 15 153 3.2 9.7 0.00 0.00 0.00 63 1010.3
20260507135003 15 157 3.2 9.7 0.00 0.00 0.00 61 1010.3
20260507134503 15 158 3.2 9.7 0.00 0.00 0.00 62 1010.4
20260507134003 15 151 1.6 9.7 0.00 0.00 0.00 62 1010.4
20260507133503 15 158 1.6 8.0 0.00 0.00 0.00 64 1010.4
20260507133003 15 176 1.6 8.0 0.00 0.00 0.00 63 1010.4
20260507132503 15 175 1.6 4.8 0.00 0.00 0.00 63 1010.5
20260507132003 15 174 1.6 4.8 0.00 0.00 0.00 65 1010.4
20260507131503 15 186 1.6 6.4 0.00 0.00 0.00 65 1010.5
20260507131003 15 175 3.2 12.9 0.00 0.00 0.00 64 1010.5
20260507130503 15 175 3.2 12.9 0.00 0.00 0.00 63 1010.5
20260507130004 16 176 1.6 6.4 0.00 0.00 0.00 63 1010.6
20260507125503 16 174 3.2 6.4 0.00 0.00 0.00 61 1010.5
20260507125003 16 177 3.2 9.7 0.00 0.00 0.00 63 1010.5
20260507124503 16 179 1.6 9.7 0.00 0.00 0.00 62 1010.6
20260507124003 16 182 3.2 8.0 0.00 0.00 0.00 65 1010.6
20260507123503 15 167 3.2 8.0 0.00 0.00 0.00 66 1010.7
20260507123003 15 160 3.2 8.0 0.00 0.00 0.00 66 1010.7
20260507122503 14 161 3.2 9.7 0.00 0.00 0.00 70 1010.8
20260507122004 14 160 3.2 11.3 0.00 0.00 0.00 70 1010.9
20260507121504 14 162 3.2 11.3 0.00 0.00 0.00 71 1010.9
20260507121003 14 170 3.2 11.3 0.00 0.00 0.00 70 1010.9
20260507120503 14 179 3.2 8.0 0.00 0.00 0.00 70 1010.9
20260507120004 14 169 1.6 8.0 0.00 0.00 0.00 72 1010.9
20260507115503 13 153 1.6 9.7 0.00 0.00 0.00 74 1010.9
20260507115003 13 162 3.2 11.3 0.00 0.00 0.00 73 1011.0
20260507114503 13 162 3.2 12.9 0.00 0.00 0.00 73 1010.9
20260507114003 13 159 3.2 12.9 0.00 0.00 0.00 73 1010.9
20260507113503 13 160 3.2 8.0 0.00 0.00 0.00 74 1010.9
20260507113003 13 156 1.6 8.0 0.00 0.00 0.00 75 1010.9
20260507112503 13 167 3.2 8.0 0.00 0.00 0.00 75 1010.9
20260507112003 13 175 3.2 8.0 0.00 0.00 0.00 76 1010.9